Regional Weather Roundup
Issued by NWS Jackson, KY

Home | Current Version | Previous Version | Text Only | Print | Product List | Glossary On
Versions: 1 2 3 4 5 6 7 8 9 10 11 12 13 14 15 16 17 18 19 20 21 22 23 24 25 26 27 28 29 30 31 32 33 34 35 36 37 38 39 40 41 42 43 44 45 46 47 48 49 50
000
ASUS43 KJKL 040610
RWRJKL

EAST KENTUCKY HOURLY WEATHER ROUNDUP
NATIONAL WEATHER SERVICE JACKSON KY
200 AM EDT MON MAY 04 2015

NOTE: "FAIR" INDICATES FEW OR NO CLOUDS BELOW 12,000 FEET WITH
NO SIGNIFICANT WEATHER AND/OR OBSTRUCTIONS TO VISIBILITY.

* THESE REPORTS ARE NOT UNDER NWS QUALITY CONTROL AND MAY NOT
  REPORT WEATHER SUCH AS PRECIPITATION AND FOG.

KYZ079-080-083-085-087-088-110-112-115-119-120-040700
...EASTERN KENTUCKY...

CITY           SKY/WX    TMP DP  RH WIND       PRES   REMARKS
JACKSON        CLEAR     61  44  53 SW3       30.16S
6HR MIN TEMP:  61; 6HR MAX TEMP:  74;

LONDON         CLEAR     57  49  74 CALM      30.16S
6HR MIN TEMP:  57; 6HR MAX TEMP:  75;

SOMERSET*      CLEAR     54  48  82 CALM      30.16S
MONTICELLO*    CLEAR     53  51  93 CALM      30.18S
6HR MIN TEMP:  53; 6HR MAX TEMP:  74;

MIDDLESBORO*   CLEAR     50  48  93 CALM      30.20S
6HR MIN TEMP:  50; 6HR MAX TEMP:  73;

HARLAN APT*    CLEAR     50  45  81 CALM      30.20S
HAZARD APT*    CLEAR     55  48  76 CALM      30.16S
BLACK MTN*       N/A     55  41  58 S6          N/A
PIKEVILLE APT* CLEAR     59  45  58 S5        30.16F
BIG SANDY*     CLEAR     60  46  58 CALM      30.16S
6HR MIN TEMP:  60; 6HR MAX TEMP:  73;

MOREHEAD APT*  PTCLDY    57  48  72 SE7       30.15S
$$

KYZ035-036-041-042-044-050-067-078-099-040700
...CENTRAL KENTUCKY...

CITY           SKY/WX    TMP DP  RH WIND       PRES   REMARKS
MT STERLING*   CLEAR     52  48  87 SW5       30.15R
FLEMING/MASON* CLEAR     61  46  59 S7        30.14R
DANVILLE*      CLEAR     55  48  76 SW6       30.15S
RICHMOND*      CLEAR     61  46  59 S5        30.13S
LEXINGTON      CLEAR     59  47  64 SE8       30.12S
6HR MIN TEMP:  57; 6HR MAX TEMP:  73;

FRANKFORT      CLEAR     57  48  72 CALM      30.10S
6HR MIN TEMP:  55; 6HR MAX TEMP:  71;

$$

KYZ091>093-OHZ055-061-077-WVZ005-015-034-035-042-040700
...SOUTHERN OHIO/WEST VIRGINIA...

CITY           SKY/WX    TMP DP  RH WIND       PRES   REMARKS
COVINGTON      CLEAR     58  49  72 S6        30.10R
COLUMBUS       CLEAR     57  47  69 CALM      30.10R
DAYTON         CLEAR     64  47  53 S7        30.11R
WILMINGTON     CLEAR     58  44  60 S5        30.11R
HUNTINGTON     CLEAR     53  47  79 CALM      30.12F
CHARLESTON     CLEAR     52  44  74 CALM      30.14F
PINEVILLE*     CLEAR     47  45  91 MISG      30.24F
BECKLEY        CLEAR     58  40  51 SE5       30.21F
BLUEFIELD      CLEAR     63  44  50 S5        30.24S
$$

VAZ002-007-008-TNZ017-027-036-066-071-040700
...SOUTHWEST VIRGINIA/EAST TENNESSEE...

CITY           SKY/WX    TMP DP  RH WIND       PRES   REMARKS
WISE*          CLEAR     55  36  47 SW5       30.23S
JONESVILLE*    CLEAR     46  46 100 CALM      30.22S
ABINGDON*      CLEAR     53  45  74 CALM      30.23S
BRISTOL        MOCLDY    55  48  77 CALM      30.21R
KNOXVILLE      PTCLDY    60  50  69 CALM      30.17S
OAK RIDGE      CLEAR     55  51  86 CALM      30.19S
CROSSVILLE     CLEAR     57  46  66 CALM      30.20F
NASHVILLE      CLEAR     58  51  78 S5        30.13S
$$

...KEY TO REMARKS...
VSB - VISIBILITY IN MILES
WCI - WIND CHILL INDEX
HX  - HEAT INDEX

$$



USA.gov is the U.S. government's official web portal to all federal, state and local government web resources and services.